Flag for Mexico Weather past 2 weeks in Campeche, Campeche, Mexico

Now
81 °F

Clear.


Feels Like: 84 °F
Forecast: 79 / 93 °F
Wind: 5 mph from East

Location: Aerop. Internacional Merida - Yuc

Current Time: Jul 23, 2014 at 9:32:30 PM

Latest Report: Jul 23, 2014 at 8:50 PM


Visibility: 7 mi

Pressure: 29.98 "Hg

Humidity: 70%

Dew point: 70 °F

Location of CampecheLocation

Historic Weather in Campeche — Graph

°F

Campeche temperature yesterday

Maximum temperature yesterday: 90 °F (at 11:46 AM)
Minimum temperature yesterday: 75 °F (at 3:47 AM)
Average temperature yesterday: 79 °F

Past Weeks' High & Low Weather Summary

 TemperatureHumidityPressure
High95 °F (Jul 19, 3:49 PM)100% (Jul 8, 9:45 PM)30.10 "Hg (Jul 8, 9:45 PM)
Low34 °F (Jul 10, 6:20 PM)39% (Jul 10, 2:50 PM)29.89 "Hg (Jul 17, 5:52 PM)
Average81 °F75%30.00 "Hg
* Reported Jul 8 8:03 PM — Jul 23 7:49 PM, Campeche, Weather by CustomWeather, © 2014

Note: Actual official high and low records may vary slightly from our data, if they occured in-between our weather recording intervals... More about our weather records

Advertising

Campeche weather history for previous 24 hours

 ConditionsComfort  
Time TempWeatherWind HumidityBarometerVisibility
7:49 PM
Jul 23
82 °FBroken clouds.8 mph66%29.97 "Hg7 mi
5:51 PM82 °FBroken clouds.7 mph55%29.96 "Hg7 mi
4:48 PM86 °FScattered clouds.12 mph52%29.96 "Hg7 mi
3:52 PM90 °FScattered clouds.9 mph52%29.97 "Hg7 mi
2:47 PM93 °FScattered clouds.8 mph44%29.97 "Hg7 mi
1:46 PM91 °FPartly sunny.10 mph52%30.00 "Hg7 mi
11:45 AM88 °FPartly sunny.7 mph59%30.04 "Hg7 mi
6:48 AM73 °FPassing clouds.No wind100%30.00 "Hg6 mi
5:52 AM73 °FPassing clouds.No wind89%30.01 "Hg6 mi
4:52 AM73 °FPassing clouds.No wind83%30.00 "Hg7 mi
3:55 AM73 °FPassing clouds.No wind89%30.01 "Hg7 mi
2:53 AM73 °FPassing clouds.5 mph89%30.01 "Hg7 mi
12:49 AM75 °FPassing clouds.5 mph89%30.03 "Hg7 mi
11:42 PM
Jul 22
75 °FPartly cloudy.7 mph89%30.04 "Hg7 mi
10:46 PM75 °FPartly cloudy.No wind100%30.05 "Hg7 mi
9:46 PM75 °FPartly cloudy.5 mph94%30.08 "Hg7 mi
Weather by CustomWeather, © 2014

See weather overviewHow to use our weather pages